Flag for Germany Weather past 2 weeks in Kulmbach, Bavaria, Germany

Now
59 °F

Mostly cloudy.


Feels Like: 60 °F
Forecast: 51 / 68 °F
Wind: 3 mph from Southwest

Location: Hof Airport

Current Time: Aug 29, 2014 at 1:43:14 AM

Latest Report: Aug 29, 2014 at 12:50 AM


Visibility: N/A

Pressure: 30.07 "Hg

Humidity: 68%

Dew point: 48 °F

Location of KulmbachLocation

Historic Weather in Kulmbach — Graph

°F

Kulmbach temperature yesterday

Maximum temperature yesterday: 70 °F (at 4:20 PM)
Minimum temperature yesterday: 37 °F (at 5:50 AM)
Average temperature yesterday: 55 °F

Past Weeks' High & Low Weather Summary

 TemperatureHumidityPressure
High70 °F (Aug 28, 4:20 PM)94% (Aug 14, 12:20 AM)30.12 "Hg (Aug 14, 12:20 AM)
Low37 °F (Aug 28, 5:50 AM)39% (Aug 22, 2:20 PM)29.68 "Hg (Aug 26, 8:20 AM)
Average53 °F76%29.97 "Hg
* Reported Aug 14 12:20 AM — Aug 29 12:20 AM, Kulmbach, Weather by CustomWeather, © 2014

Note: Actual official high and low records may vary slightly from our data, if they occured in-between our weather recording intervals... More about our weather records

Advertising

Kulmbach weather history for previous 24 hours

 ConditionsComfort  
Time TempWeatherWind HumidityBarometerVisibility
12:20 AM
Aug 29
59 °FOvercast.3 mph68%30.07 "HgN/A
11:50 PM
Aug 28
59 °FPassing clouds.3 mph68%30.07 "HgN/A
11:20 PM57 °FPassing clouds.3 mph72%30.07 "HgN/A
10:50 PM59 °FPassing clouds.5 mph68%30.07 "HgN/A
10:20 PM57 °FPassing clouds.3 mph72%30.09 "HgN/A
9:50 PM57 °FCool.5 mph72%30.09 "HgN/A
9:20 PM57 °FCool.3 mph72%30.09 "HgN/A
8:50 PM59 °FSunny.3 mph68%30.07 "Hg10 mi
8:20 PM57 °FSunny.No wind77%30.07 "Hg10 mi
7:50 PM59 °FSunny.3 mph72%30.07 "Hg10 mi
7:20 PM64 °FSunny.3 mph56%30.07 "Hg10 mi
6:50 PM64 °FPassing clouds.7 mph52%30.07 "HgN/A
6:20 PM68 °FPassing clouds.6 mph46%30.07 "HgN/A
5:20 PM70 °FSunny.2 mph43%30.07 "Hg10 mi
4:50 PM66 °FScattered clouds.6 mph49%30.09 "HgN/A
4:20 PM70 °FPassing clouds.5 mph46%30.09 "HgN/A
3:50 PM68 °FPassing clouds.5 mph43%30.09 "HgN/A
3:20 PM66 °FSunny.2 mph46%30.09 "Hg10 mi
2:50 PM68 °FPassing clouds.7 mph43%30.09 "HgN/A
2:20 PM68 °FPassing clouds.6 mph46%30.09 "HgN/A
1:50 PM66 °FScattered clouds.7 mph49%30.09 "HgN/A
1:20 PM66 °FScattered clouds.7 mph49%30.09 "HgN/A
12:50 PM64 °FScattered clouds.7 mph46%30.12 "HgN/A
12:20 PM66 °FPassing clouds.5 mph46%30.12 "HgN/A
11:50 AM66 °FPassing clouds.7 mph40%30.12 "HgN/A
11:20 AM64 °FPassing clouds.6 mph46%30.12 "HgN/A
10:50 AM64 °FSunny.3 mph46%30.12 "Hg10 mi
10:20 AM63 °FPassing clouds.3 mph59%30.12 "HgN/A
9:50 AM59 °FSunny.2 mph68%30.12 "Hg10 mi
9:20 AM57 °FSunny.2 mph67%30.12 "Hg10 mi
8:50 AM54 °FSunny.No wind77%30.12 "Hg10 mi
8:20 AM50 °FSunny.No wind88%30.12 "Hg10 mi
7:50 AM46 °FSunny.No wind93%30.12 "Hg10 mi
7:20 AM43 °FSunny.No wind93%30.09 "Hg10 mi
6:50 AM39 °FClear.No wind93%30.09 "Hg10 mi
6:20 AM39 °FFog.No wind93%30.09 "Hg1 mi
5:50 AM37 °FChilly.No wind93%30.09 "Hg1 mi
5:20 AM41 °FQuite cool.No wind87%30.09 "Hg2 mi
4:50 AM39 °FChilly.No wind93%30.09 "Hg1 mi
4:20 AM39 °FChilly.No wind93%30.09 "Hg4 mi
3:50 AM39 °FChilly.3 mph93%30.09 "HgN/A
3:20 AM39 °FChilly.No wind93%30.09 "HgN/A
2:50 AM41 °FQuite cool.No wind93%30.09 "HgN/A
2:20 AM41 °FQuite cool.No wind93%30.09 "HgN/A
1:50 AM41 °FQuite cool.No wind87%30.09 "Hg1 mi
1:20 AM43 °FQuite cool.1 mph93%30.09 "HgN/A
Weather by CustomWeather, © 2014

See weather overviewHow to use our weather pages